Regional Weather Roundup
Issued by NWS

Home | Current Version | Previous Version | Text Only | Print | Product List | Glossary On
Versions: 1 2 3 4 5 6 7 8 9 10 11 12 13 14 15 16 17 18 19 20 21 22 23 24 25 26 27 28 29 30 31 32 33 34 35 36 37 38 39 40 41 42 43 44 45 46 47 48
000
ASUS46 KPQR 300210
RWROR

OREGON REGIONAL WEATHER ROUNDUP
NATIONAL WEATHER SERVICE PORTLAND OR
700 PM PDT SAT AUG 29 2015

NOTE: "FAIR" INDICATES FEW OR NO CLOUDS BELOW 12,000 FEET WITH
NO SIGNIFICANT WEATHER AND/OR OBSTRUCTIONS TO VISIBILITY.

ORZ001>013-300300-
NORTHWEST OREGON


CITY           SKY/WX    TMP DP  RH WIND       PRES   REMARKS
ASTORIA        LGT RAIN  63  59  87 SW24G41   29.77R
NEWPORT        MOCLDY    63  59  88 S22G40    29.88F
PORTLAND       MOCLDY    72  53  51 SW10G18   29.82F
VANCOUVER WA   CLOUDY    71  54  54 CALM      29.82F
SCAPPOOSE      MOCLDY    71  52  50 SW9       29.80F
HILLSBORO      MOCLDY    69  52  54 SW15G22   29.81F
AURORA         MOCLDY    68  56  65 S16G24    29.84R
MCMINNVILLE    PTCLDY    69  52  54 SW13G23   29.84S
SALEM          MOCLDY    68  57  68 S13       29.84S
CORVALLIS      MOCLDY    64  59  82 S14       29.88S
EUGENE         PTCLDY    68  57  68 W15       29.88R
$$

ORZ021-028-300300-
SOUTHWEST OREGON


CITY           SKY/WX    TMP DP  RH WIND       PRES   REMARKS
NORTH BEND     CLOUDY    66  63  88 S13G20    29.91S
BROOKINGS      LGT RAIN  64  63  97 S12G20    29.98S FOG
ROSEBURG       MOCLDY    74  50  42 SW10      29.88S
SEXTON SUMMIT  MOCLDY    57  44  62 SW10G25   30.00R
MEDFORD        CLEAR     75  49  39 W14       29.89R
$$

ORZ014>016-041-300300-
COLUMBIA GORGE


CITY           SKY/WX    TMP DP  RH WIND       PRES   REMARKS
TROUTDALE      CLOUDY    72  54  53 SW10G20   29.82F
THE DALLES     PTCLDY    71  53  52 NW14      29.82S
$$

ORZ029>031-041-044-049-050-061>064-502-503-505>511-300300-
EASTERN OREGON


CITY           SKY/WX    TMP DP  RH WIND       PRES   REMARKS
REDMOND        PTCLDY    70  37  29 W13       29.90R
BEND           PTCLDY    68  37  32 W7G22     29.92S
PRINEVILLE     CLEAR     70  37  30 W15       29.90S
KLAMATH FALLS  MOCLDY    70  41  34 NW14      29.96R
LAKEVIEW       CLEAR     66  37  34 SW17      29.99R
HERMISTON      MOCLDY    77  46  33 W12       29.79R
PENDLETON      PTCLDY    70  42  36 NW9       29.84R
JOHN DAY       PTCLDY    72  37  28 NW15G22   29.87R
MEACHAM        PTCLDY    63  40  42 VRB5      29.93R
LA GRANDE      PTCLDY    72  37  28 NW13      29.86S
BAKER CITY     PTCLDY    65  47  52 NW12G21   29.86R
BURNS          CLEAR     73  28  18 SW16G24   29.90S
ROME             N/A     83  37  19 SW21G31   29.86S
ONTARIO        PTCLDY    82  47  29 W12       29.78R
$$


USA.gov is the U.S. government's official web portal to all federal, state and local government web resources and services.